When you browse on this site, cookies collect data to enhance your experience and personalize the content and advertising you see.
Visit our Privacy Policy to learn more. By continuing to use the site, you agree to this use of cookies and data.
  • In Österreich
  • Länderverzeichnis
  • Für 7 Tage
  • Wassertemperatur
  • Satellitenkarten
  • Wetterkarte
  • News
  • Widgets
  • user-avatar
    Anmelden

    Stündliche Wetter Kabul

    Heute, 23 April, Dienstag

    Zeit Temperatur Niederschläge Wind Luftdruck Luftfeuchtigkeit
    00:00 +18°C° 0 mm 1 m/S 610 mmHg 41%
    01:00 +16°C° 0 mm 1 m/S 610 mmHg 42%
    02:00 +15°C° 0 mm 1 m/S 609 mmHg 43%
    03:00 +15°C° 0 mm 1 m/S 609 mmHg 44%
    04:00 +15°C° 0 mm 1 m/S 609 mmHg 44%
    05:00 +14°C° 0 mm 1 m/S 608 mmHg 45%
    06:00 +15°C° 0 mm 1 m/S 609 mmHg 41%
    07:00 +16°C° 0 mm 1 m/S 610 mmHg 37%
    08:00 +18°C° 0 mm 1 m/S 610 mmHg 33%
    09:00 +18°C° 0 mm 1 m/S 610 mmHg 32%
    10:00 +19°C° 0 mm 1 m/S 610 mmHg 31%
    11:00 +19°C° 0 mm 1 m/S 611 mmHg 30%
    12:00 +20°C° 0 mm 1 m/S 611 mmHg 30%
    13:00 +20°C° 0 mm 2 m/S 611 mmHg 30%
    14:00 +20°C° 0 mm 2 m/S 611 mmHg 30%
    15:00 +20°C° 0.1 mm 2 m/S 610 mmHg 32%
    16:00 +20°C° 0.1 mm 2 m/S 610 mmHg 33%
    17:00 +20°C° 0.1 mm 2 m/S 610 mmHg 34%
    18:00 +19°C° 0.4 mm 2 m/S 610 mmHg 38%
    19:00 +18°C° 0.4 mm 2 m/S 610 mmHg 42%
    20:00 +17°C° 0.4 mm 2 m/S 609 mmHg 45%
    21:00 +16°C° 0 mm 2 m/S 609 mmHg 47%
    22:00 +16°C° 0 mm 2 m/S 609 mmHg 48%
    23:00 +15°C° 0 mm 2 m/S 609 mmHg 49%

    Morgen, 24 April, Mittwoch

    Zeit Temperatur Niederschläge Wind Luftdruck Luftfeuchtigkeit
    00:00 +15°C° 0 mm 2 m/S 609 mmHg 50%
    01:00 +14°C° 0 mm 2 m/S 608 mmHg 51%
    02:00 +13°C° 0 mm 2 m/S 608 mmHg 53%
    03:00 +13°C° 0.9 mm 2 m/S 608 mmHg 57%
    04:00 +12°C° 0.9 mm 1 m/S 608 mmHg 62%
    05:00 +11°C° 0.9 mm 1 m/S 608 mmHg 67%
    06:00 +12°C° 0.5 mm 1 m/S 608 mmHg 68%
    07:00 +12°C° 0.5 mm 2 m/S 608 mmHg 68%
    08:00 +12°C° 0.5 mm 2 m/S 609 mmHg 68%
    09:00 +14°C° 0.1 mm 2 m/S 609 mmHg 65%
    10:00 +15°C° 0.1 mm 2 m/S 609 mmHg 61%
    11:00 +16°C° 0.1 mm 2 m/S 610 mmHg 57%
    12:00 +17°C° 0.3 mm 3 m/S 610 mmHg 55%
    13:00 +18°C° 0.3 mm 3 m/S 610 mmHg 52%
    14:00 +19°C° 0.3 mm 4 m/S 610 mmHg 49%
    15:00 +19°C° 0.7 mm 4 m/S 610 mmHg 51%
    16:00 +18°C° 0.7 mm 4 m/S 609 mmHg 54%
    17:00 +18°C° 0.7 mm 4 m/S 608 mmHg 56%
    18:00 +17°C° 0.3 mm 4 m/S 608 mmHg 62%
    19:00 +14°C° 0.3 mm 3 m/S 608 mmHg 68%
    20:00 +13°C° 0.3 mm 3 m/S 608 mmHg 75%
    21:00 +13°C° 0.2 mm 3 m/S 608 mmHg 74%
    22:00 +13°C° 0.2 mm 2 m/S 609 mmHg 73%
    23:00 +13°C° 0.2 mm 2 m/S 609 mmHg 73%

    übermorgen, 25 April, Donnerstag

    Zeit Temperatur Niederschläge Wind Luftdruck Luftfeuchtigkeit
    00:00 +13°C° 0 mm 2 m/S 608 mmHg 72%
    01:00 +12°C° 0 mm 2 m/S 608 mmHg 71%
    02:00 +12°C° 0 mm 2 m/S 608 mmHg 70%
    03:00 +12°C° 0 mm 2 m/S 608 mmHg 70%
    04:00 +10°C° 0 mm 2 m/S 608 mmHg 70%
    05:00 +11°C° 0 mm 1 m/S 608 mmHg 70%
    06:00 +11°C° 0 mm 1 m/S 608 mmHg 65%
    07:00 +12°C° 0 mm 1 m/S 609 mmHg 60%
    08:00 +13°C° 0 mm 1 m/S 609 mmHg 56%
    09:00 +14°C° 0 mm 2 m/S 610 mmHg 48%
    10:00 +15°C° 0 mm 2 m/S 611 mmHg 40%
    11:00 +17°C° 0 mm 2 m/S 611 mmHg 32%
    12:00 +18°C° 0 mm 3 m/S 611 mmHg 28%
    13:00 +19°C° 0 mm 4 m/S 611 mmHg 25%
    14:00 +20°C° 0 mm 5 m/S 611 mmHg 21%
    15:00 +20°C° 0 mm 5 m/S 611 mmHg 21%
    16:00 +20°C° 0 mm 5 m/S 611 mmHg 21%
    17:00 +20°C° 0 mm 5 m/S 611 mmHg 22%
    18:00 +19°C° 0 mm 5 m/S 611 mmHg 26%
    19:00 +17°C° 0 mm 4 m/S 610 mmHg 29%
    20:00 +16°C° 0 mm 3 m/S 610 mmHg 33%
    21:00 +14°C° 0 mm 3 m/S 610 mmHg 34%
    22:00 +14°C° 0 mm 2 m/S 610 mmHg 35%
    23:00 +13°C° 0 mm 2 m/S 610 mmHg 37%

    26 April, Freitag

    Zeit Temperatur Niederschläge Wind Luftdruck Luftfeuchtigkeit
    00:00 +13°C° 0 mm 2 m/S 610 mmHg 37%
    01:00 +12°C° 0 mm 2 m/S 609 mmHg 38%
    02:00 +12°C° 0 mm 1 m/S 609 mmHg 39%
    03:00 +11°C° 0 mm 1 m/S 608 mmHg 40%
    04:00 +11°C° 0 mm 1 m/S 608 mmHg 41%
    05:00 +10°C° 0 mm 1 m/S 608 mmHg 43%
    06:00 +11°C° 0 mm 1 m/S 609 mmHg 39%
    07:00 +12°C° 0 mm 1 m/S 609 mmHg 34%
    08:00 +13°C° 0 mm 1 m/S 610 mmHg 30%
    09:00 +15°C° 0 mm 1 m/S 611 mmHg 28%
    10:00 +16°C° 0 mm 1 m/S 611 mmHg 26%
    11:00 +18°C° 0 mm 1 m/S 612 mmHg 24%
    12:00 +18°C° 0 mm 2 m/S 611 mmHg 22%
    13:00 +19°C° 0 mm 2 m/S 611 mmHg 21%
    14:00 +20°C° 0 mm 2 m/S 611 mmHg 19%
    15:00 +19°C° 0 mm 3 m/S 611 mmHg 20%
    16:00 +19°C° 0 mm 3 m/S 611 mmHg 20%
    17:00 +19°C° 0 mm 3 m/S 611 mmHg 20%
    18:00 +18°C° 0 mm 3 m/S 610 mmHg 23%
    19:00 +16°C° 0 mm 3 m/S 610 mmHg 26%
    20:00 +14°C° 0 mm 3 m/S 610 mmHg 28%
    21:00 +13°C° 0 mm 3 m/S 610 mmHg 30%
    22:00 +14°C° 0 mm 2 m/S 610 mmHg 31%
    23:00 +13°C° 0 mm 2 m/S 610 mmHg 32%

    27 April, Samstag

    Zeit Temperatur Niederschläge Wind Luftdruck Luftfeuchtigkeit
    00:00 +13°C° 0 mm 2 m/S 610 mmHg 32%
    01:00 +12°C° 0 mm 2 m/S 609 mmHg 32%
    02:00 +12°C° 0 mm 2 m/S 609 mmHg 32%
    03:00 +12°C° 0 mm 1 m/S 609 mmHg 32%
    04:00 +11°C° 0 mm 1 m/S 609 mmHg 33%
    05:00 +11°C° 0 mm 1 m/S 608 mmHg 33%
    06:00 +12°C° 0 mm 1 m/S 609 mmHg 30%
    07:00 +13°C° 0 mm 1 m/S 609 mmHg 27%
    08:00 +14°C° 0 mm 1 m/S 610 mmHg 24%
    09:00 +15°C° 0 mm 1 m/S 610 mmHg 23%
    10:00 +16°C° 0 mm 1 m/S 611 mmHg 22%
    11:00 +18°C° 0 mm 1 m/S 611 mmHg 21%
    12:00 +17°C° 0 mm 2 m/S 611 mmHg 21%
    13:00 +18°C° 0 mm 2 m/S 611 mmHg 21%
    14:00 +19°C° 0 mm 2 m/S 610 mmHg 21%
    15:00 +19°C° 0 mm 2 m/S 610 mmHg 21%
    16:00 +19°C° 0 mm 2 m/S 610 mmHg 21%
    17:00 +19°C° 0 mm 3 m/S 610 mmHg 21%
    18:00 +18°C° 0 mm 3 m/S 610 mmHg 24%
    19:00 +16°C° 0 mm 3 m/S 610 mmHg 26%
    20:00 +14°C° 0 mm 3 m/S 610 mmHg 29%
    21:00 +13°C° 0 mm 3 m/S 610 mmHg 31%
    22:00 +14°C° 0 mm 2 m/S 610 mmHg 33%
    23:00 +13°C° 0 mm 2 m/S 610 mmHg 36%

    28 April, Sonntag

    Zeit Temperatur Niederschläge Wind Luftdruck Luftfeuchtigkeit
    00:00 +13°C° 0 mm 2 m/S 609 mmHg 38%
    01:00 +12°C° 0 mm 2 m/S 609 mmHg 40%
    02:00 +12°C° 0 mm 1 m/S 608 mmHg 42%
    03:00 +11°C° 0 mm 1 m/S 608 mmHg 44%
    04:00 +11°C° 0 mm 1 m/S 608 mmHg 46%
    05:00 +10°C° 0 mm 1 m/S 608 mmHg 48%
    06:00 +11°C° 0 mm 1 m/S 609 mmHg 44%
    07:00 +12°C° 0 mm 1 m/S 609 mmHg 41%
    08:00 +14°C° 0 mm 1 m/S 610 mmHg 37%
    09:00 +15°C° 0 mm 1 m/S 610 mmHg 35%
    10:00 +16°C° 0 mm 1 m/S 610 mmHg 32%
    11:00 +18°C° 0 mm 1 m/S 611 mmHg 29%
    12:00 +18°C° 0 mm 2 m/S 611 mmHg 27%
    13:00 +18°C° 0 mm 2 m/S 610 mmHg 25%
    14:00 +19°C° 0 mm 3 m/S 610 mmHg 23%
    15:00 +19°C° 0 mm 3 m/S 610 mmHg 23%
    16:00 +19°C° 0 mm 3 m/S 610 mmHg 23%
    17:00 +19°C° 0 mm 4 m/S 609 mmHg 23%
    18:00 +18°C° 0 mm 3 m/S 609 mmHg 27%
    19:00 +17°C° 0 mm 3 m/S 609 mmHg 31%
    20:00 +16°C° 0 mm 2 m/S 609 mmHg 35%
    21:00 +15°C° 0 mm 2 m/S 609 mmHg 37%
    22:00 +14°C° 0 mm 2 m/S 609 mmHg 40%
    23:00 +14°C° 0 mm 1 m/S 609 mmHg 42%
    Mehr zeigen